Sarnia, Ontario

10:24 AM EST on December 11, 2016 (GMT -0500)
Sarnia

Weather History for CYZR - May, 2013

Change the Weather History Date:

Wednesday, May 29, 2013

  Actual Average Record
Temperature  
Mean Temperature 56 °F -  
Max Temperature 80 °F 72 °F 93 °F (1988)
Min Temperature 32 °F 56 °F 30 °F (2012)
Degree Days  
Heating Degree Days 9    
Growing Degree Days 6 (Base 50)    
Moisture  
Dew Point 63 °F    
Average Humidity 87    
Maximum Humidity 100    
Minimum Humidity 18    
Precipitation  
Precipitation 0.00 in 0.10 in - ()
Sea Level Pressure  
Sea Level Pressure 29.89 in    
Wind  
Wind Speed 8 mph ()    
Max Wind Speed 23 mph    
Max Gust Speed 33 mph    
Visibility 6.3 miles    
Events Rain , Thunderstorm    
Averages and records for this station are not official NWS values.
T = Trace of Precipitation, MM = Missing Value Source: Averaged Metar Reports

Daily Weather History Graph

Daily Weather History Graph

Search for Another Location

Airport or City:

Trip Planner

Search our weather history database for the weather conditions in past years. The results will help you decide how hot, cold, wet, or windy it might be!

Date:

Astronomy

May. 29, 2013 Rise Set
Actual Time 5:54 AM EDT 8:59 PM EDT
Civil Twilight 5:20 AM EDT 9:33 PM EDT
Nautical Twilight 4:36 AM EDT 10:17 PM EDT
Astronomical Twilight 3:44 AM EDT 11:10 PM EDT
Moon 12:17 AM EDT (5/29) 10:56 AM EDT (5/29)
Length of Visible Light 16h 13m
Length of Day
15h 05m
Waning Gibbous, 73% of the Moon is Illuminated
May 29
Waning Gibbous
May 31
Last Quarter
Jun 8
New
Jun 16
First Quarter
Jun 23
Full

Hourly Weather History & Observations

Time (EDT) Temp. Heat Index Dew Point Humidity Pressure Visibility Wind Dir Wind Speed Gust Speed Precip Events Conditions
12:00 AM 68.0 °F - 66.2 °F 94% 29.83 in 5.0 mi South 9.2 mph - N/A Rain , Thunderstorm Light Thunderstorms and Rain
12:09 AM 68.0 °F - 66.2 °F 94% 29.84 in 6.0 mi Variable 11.5 mph - N/A Rain , Thunderstorm Light Thunderstorms and Rain
12:12 AM 66.2 °F - 64.4 °F 94% 29.84 in 6.0 mi Variable 6.9 mph - N/A Thunderstorm Overcast
12:14 AM 66.2 °F - 64.4 °F 94% 29.83 in 5.0 mi Variable 6.9 mph - N/A Thunderstorm Overcast
12:15 AM 66.2 °F - 64.4 °F 94% 29.83 in 5.0 mi NNE 5.8 mph - N/A Rain , Thunderstorm Light Thunderstorms and Rain
12:26 AM 66.2 °F - 64.4 °F 94% 29.83 in 5.0 mi SSE 4.6 mph - N/A Thunderstorm Overcast
12:40 AM 66.2 °F - 66.2 °F 100% 29.83 in 6.0 mi South 4.6 mph - N/A Thunderstorm Overcast
12:47 AM 66.2 °F - 66.2 °F 100% 29.83 in 6.0 mi SSE 5.8 mph - N/A Thunderstorm Overcast
12:57 AM 66.2 °F - 66.2 °F 100% 29.83 in 6.0 mi SSE 4.6 mph - N/A   Overcast
1:00 AM 66.2 °F - 66.2 °F 100% 29.83 in 6.0 mi SSE 5.8 mph - N/A   Overcast
1:22 AM 66.2 °F - 66.2 °F 100% 29.83 in 8.0 mi SSW 5.8 mph - N/A Thunderstorm Overcast
1:32 AM 68.0 °F - 66.2 °F 94% 29.84 in 5.0 mi SSW 15.0 mph 24.2 mph N/A Thunderstorm Overcast
1:34 AM 68.0 °F - 66.2 °F 94% 29.84 in 5.0 mi SSW 20.7 mph 26.5 mph N/A Thunderstorm Overcast
1:35 AM 68.0 °F - 66.2 °F 94% 29.84 in 5.0 mi SSW 18.4 mph 26.5 mph N/A Rain , Thunderstorm Light Thunderstorms and Rain
1:36 AM 68.0 °F - 66.2 °F 94% 29.83 in 6.0 mi SSW 17.3 mph 26.5 mph N/A Rain , Thunderstorm Light Thunderstorms and Rain
1:49 AM 68.0 °F - 66.2 °F 94% 29.83 in 8.0 mi SW 13.8 mph 25.3 mph N/A Rain , Thunderstorm Heavy Thunderstorms and Rain
1:54 AM 68.0 °F - 66.2 °F 94% 29.83 in 5.0 mi WSW 15.0 mph 25.3 mph N/A Rain , Thunderstorm Heavy Thunderstorms and Rain
1:57 AM 68.0 °F - 66.2 °F 94% 29.83 in 4.0 mi North - - N/A   Unknown
1:58 AM 68.0 °F - 66.2 °F 94% 29.84 in 2.2 mi North - - N/A Rain , Thunderstorm Heavy Thunderstorms and Rain
1:59 AM 68.0 °F - 66.2 °F 94% 29.85 in 1.8 mi North - - N/A Rain , Thunderstorm Light Thunderstorms and Rain
2:00 AM 37 °F - 36 °F 93% 30.30 in - SSE 2.3 mph - -  
2:00 AM 68.0 °F - 66.2 °F 94% 29.85 in 1.5 mi WSW 23.0 mph 32.2 mph N/A Rain , Thunderstorm Heavy Thunderstorms and Rain
2:08 AM 64.4 °F - 62.6 °F 94% 29.86 in 2.0 mi West 9.2 mph 33.4 mph N/A Rain , Thunderstorm Heavy Thunderstorms and Rain
2:12 AM 64.4 °F - 62.6 °F 94% 29.85 in 2.5 mi WNW 15.0 mph 25.3 mph N/A Rain , Thunderstorm Thunderstorms and Rain
2:13 AM 64.4 °F - 62.6 °F 94% 29.86 in 2.5 mi WNW 17.3 mph 24.2 mph N/A Rain , Thunderstorm Heavy Thunderstorms and Rain
2:20 AM 64.4 °F - 62.6 °F 94% 29.86 in 1.8 mi NW 19.6 mph 25.3 mph N/A Rain , Thunderstorm Heavy Thunderstorms and Rain
2:26 AM 64.4 °F - 62.6 °F 94% 29.84 in 2.0 mi North 10.4 mph 25.3 mph N/A Rain , Thunderstorm Thunderstorms and Rain
2:29 AM 64.4 °F - 62.6 °F 94% 29.83 in 2.5 mi NE 4.6 mph 23.0 mph N/A Rain , Thunderstorm Thunderstorms and Rain
2:31 AM 64.4 °F - 62.6 °F 94% 29.84 in 3.0 mi Variable 4.6 mph 17.3 mph N/A Rain , Thunderstorm Light Thunderstorms and Rain
2:35 AM 64.4 °F - 62.6 °F 94% 29.83 in 6.0 mi Variable 2.3 mph - N/A Rain , Thunderstorm Light Thunderstorms and Rain
2:42 AM 64.4 °F - 62.6 °F 94% 29.83 in 9.0 mi Variable 5.8 mph - N/A Rain , Thunderstorm Light Rain
2:47 AM 64.4 °F - 62.6 °F 94% 29.83 in 9.0 mi SE 4.6 mph - N/A Thunderstorm Overcast
2:57 AM 64.4 °F - 62.6 °F 94% 29.82 in 9.0 mi SE 5.8 mph - N/A   Overcast
3:00 AM 64.4 °F - 62.6 °F 94% 29.82 in 9.0 mi SSE 9.2 mph - N/A   Overcast
4:00 AM 64.4 °F - 62.6 °F 94% 29.84 in 9.0 mi South 6.9 mph - N/A   Mostly Cloudy
5:00 AM 66.2 °F - 64.4 °F 94% 29.87 in 9.0 mi SSW 5.8 mph - N/A   Mostly Cloudy
6:00 AM 66.2 °F - 64.4 °F 94% 29.88 in 9.0 mi SW 5.8 mph - N/A   Partly Cloudy
7:00 AM 66.2 °F - 64.4 °F 94% 29.89 in 9.0 mi South 5.8 mph - N/A   Clear
8:00 AM 50 °F - 42 °F 64% 30.30 in - South 2.3 mph - -  
8:00 AM 68.0 °F - 64.4 °F 88% 29.90 in 9.0 mi SSW 8.1 mph - N/A   Mostly Cloudy
8:17 AM 69.8 °F - 64.4 °F 83% 29.90 in 9.0 mi SW 9.2 mph - N/A Thunderstorm Mostly Cloudy
8:22 AM 69.8 °F - 64.4 °F 83% 29.91 in 9.0 mi SW 11.5 mph - N/A Rain , Thunderstorm Light Rain
8:30 AM 69.8 °F - 64.4 °F 83% 29.89 in 5.0 mi South 4.6 mph - N/A Rain , Thunderstorm Light Rain
8:35 AM 68.0 °F - 66.2 °F 94% 29.89 in 5.0 mi SW 6.9 mph - N/A Rain Light Rain
8:39 AM 68.0 °F - 64.4 °F 88% 29.90 in 7.0 mi SSW 6.9 mph - N/A Rain Light Rain
9:00 AM 68.0 °F - 66.2 °F 94% 29.91 in 9.0 mi SSW 8.1 mph - N/A Rain Light Rain
9:15 AM 68.0 °F - 66.2 °F 94% 29.91 in 9.0 mi SSW 8.1 mph - N/A   Overcast
10:00 AM 71.6 °F - 66.2 °F 83% 29.91 in 9.0 mi SW 11.5 mph - N/A   Overcast
11:00 AM 75.2 °F - 66.2 °F 73% 29.91 in 9.0 mi WSW 9.2 mph 20.7 mph N/A   Partly Cloudy
11:12 AM 73.4 °F - 66.2 °F 78% 29.91 in 9.0 mi WSW 10.4 mph 19.6 mph N/A   Mostly Cloudy
11:22 AM 75.2 °F - 68.0 °F 78% 29.91 in 9.0 mi WSW 9.2 mph 18.4 mph N/A   Mostly Cloudy
12:00 PM 77.0 °F - 66.2 °F 69% 29.91 in 9.0 mi SW 11.5 mph - N/A   Mostly Cloudy
1:00 PM 78.8 °F - 66.2 °F 65% 29.93 in 9.0 mi WSW 8.1 mph - N/A   Mostly Cloudy
2:00 PM 71 °F - 37 °F 18% 30.18 in - SSW 5.8 mph - -  
2:00 PM 78.8 °F - 66.2 °F 65% 29.94 in 9.0 mi WSW 13.8 mph - N/A   Scattered Clouds
3:00 PM 80.6 °F 82.3 °F 64.4 °F 58% 29.95 in 9.0 mi North - - N/A   Unknown
8:00 PM 65 °F - 38 °F 26% 30.11 in - South 3.5 mph - -